TimeCDT,TemperatureF,Dew PointF,Humidity,Sea Level PressureIn,VisibilityMPH,Wind Direction,Wind SpeedMPH,Gust SpeedMPH,PrecipitationIn,Events,Conditions,WindDirDegrees,DateUTC
12:54 AM,32.0,23.0,69,30.05,9.0,NE,8.1,-,0.00,Snow,Light Snow,40,2013-03-24 05:54:00
1:54 AM,30.9,24.1,76,30.05,6.0,NE,10.4,-,0.00,Snow,Light Snow,40,2013-03-24 06:54:00
2:32 AM,30.0,25.0,82,30.01,2.5,NNE,13.8,-,0.00,Snow,Light Snow,20,2013-03-24 07:32:00
2:54 AM,30.0,26.1,85,30.03,1.8,North,11.5,-,0.00,Snow,Light Snow,10,2013-03-24 07:54:00
3:08 AM,30.0,26.1,85,30.01,2.0,North,10.4,-,0.00,Snow,Light Snow,360,2013-03-24 08:08:00
3:16 AM,30.0,26.1,85,30.01,2.5,North,10.4,-,0.01,Snow,Light Snow,360,2013-03-24 08:16:00
3:21 AM,30.0,26.1,85,30.00,3.0,North,9.2,-,0.01,Snow,Light Snow,360,2013-03-24 08:21:00
3:29 AM,30.0,26.1,85,29.99,3.0,North,12.7,-,0.01,Snow,Light Snow,10,2013-03-24 08:29:00
3:32 AM,30.0,26.1,85,29.99,3.0,North,13.8,-,0.01,Snow,Light Snow,10,2013-03-24 08:32:00
3:40 AM,30.0,26.1,85,29.98,2.0,North,11.5,-,0.01,Snow,Light Snow,10,2013-03-24 08:40:00
3:49 AM,30.2,26.6,86,29.98,1.5,North,12.7,-,0.01,Snow,Light Snow,10,2013-03-24 08:49:00
3:54 AM,30.0,26.1,85,30.00,1.5,North,13.8,-,0.01,Snow,Light Snow,10,2013-03-24 08:54:00
4:14 AM,30.0,26.1,85,29.97,1.5,North,10.4,-,0.01,Snow,Light Snow,360,2013-03-24 09:14:00
4:35 AM,30.0,26.1,85,29.97,1.8,North,9.2,-,0.01,Snow,Light Snow,360,2013-03-24 09:35:00
4:42 AM,30.0,26.1,85,29.97,2.0,North,10.4,-,0.01,Snow,Light Snow,360,2013-03-24 09:42:00
4:54 AM,30.0,26.1,85,29.99,2.5,North,11.5,-,0.01,Snow,Light Snow,360,2013-03-24 09:54:00
5:03 AM,30.0,25.0,82,29.96,2.5,North,12.7,-,0.00,Snow,Light Snow,360,2013-03-24 10:03:00
5:16 AM,30.0,25.0,82,29.96,2.5,North,12.7,24.2,0.01,Snow,Light Snow,10,2013-03-24 10:16:00
5:27 AM,28.9,25.0,85,29.96,2.5,North,11.5,-,0.01,Snow,Light Snow,360,2013-03-24 10:27:00
5:35 AM,28.9,25.0,85,29.96,3.0,North,13.8,-,0.01,Snow,Light Snow,360,2013-03-24 10:35:00
5:47 AM,28.9,25.0,85,29.96,3.0,North,10.4,-,0.01,Snow,Light Snow,350,2013-03-24 10:47:00
5:54 AM,28.9,25.0,85,29.99,2.5,North,10.4,-,0.01,Snow,Light Snow,360,2013-03-24 10:54:00
6:54 AM,28.9,25.0,85,29.98,2.0,North,15.0,-,0.00,Snow,Light Snow,360,2013-03-24 11:54:00
7:28 AM,28.0,24.1,85,29.95,1.5,NNW,12.7,-,0.01,Snow,Light Snow,340,2013-03-24 12:28:00
7:35 AM,28.0,24.1,85,29.95,1.2,NNW,13.8,-,0.01,Snow,Light Snow,340,2013-03-24 12:35:00
7:52 AM,28.4,24.8,86,29.95,1.5,North,15.0,-,0.01,Snow,Light Snow,360,2013-03-24 12:52:00
7:54 AM,28.0,24.1,85,29.98,1.5,North,13.8,-,0.01,Snow,Light Snow,360,2013-03-24 12:54:00
8:08 AM,28.0,24.1,85,29.94,3.0,North,15.0,-,0.00,Snow,Light Snow,360,2013-03-24 13:08:00
8:38 AM,28.9,24.1,82,29.94,2.5,North,13.8,20.7,0.00,Snow,Light Snow,360,2013-03-24 13:38:00
8:42 AM,28.9,24.1,82,29.95,3.0,North,11.5,19.6,0.00,Snow,Light Snow,350,2013-03-24 13:42:00
8:54 AM,28.9,24.1,82,29.98,5.0,North,13.8,-,0.00,,Haze,350,2013-03-24 13:54:00
9:20 AM,28.9,24.1,82,29.95,1.5,NNW,15.0,-,0.00,Snow,Light Snow,340,2013-03-24 14:20:00
9:38 AM,28.9,24.1,82,29.95,0.8,North,15.0,-,0.00,Snow,Light Snow,350,2013-03-24 14:38:00
9:54 AM,28.9,24.1,82,29.97,0.8,NNW,13.8,-,0.00,Snow,Light Snow,340,2013-03-24 14:54:00
10:54 AM,28.9,25.0,85,29.97,0.8,NNW,11.5,-,0.00,Snow,Light Snow,340,2013-03-24 15:54:00
10:57 AM,28.9,25.0,85,29.94,1.0,NNW,10.4,-,0.00,Snow,Light Snow,340,2013-03-24 15:57:00
11:38 AM,30.0,25.0,82,29.93,2.5,North,16.1,-,0.01,Snow,Light Snow,350,2013-03-24 16:38:00
11:47 AM,30.0,25.0,82,29.92,3.0,North,16.1,-,0.01,Snow,Light Snow,350,2013-03-24 16:47:00
11:54 AM,30.0,24.1,79,29.96,4.0,NNW,18.4,25.3,0.01,Snow,Light Snow,340,2013-03-24 16:54:00
12:39 PM,30.0,24.1,79,29.92,2.5,NNW,17.3,-,0.00,Snow,Light Snow,340,2013-03-24 17:39:00
12:47 PM,30.0,24.1,79,29.92,2.0,NNW,17.3,-,0.00,Snow,Light Snow,340,2013-03-24 17:47:00
12:50 PM,30.2,24.8,80,29.92,1.8,NNW,13.8,-,0.00,Snow,Light Snow,340,2013-03-24 17:50:00
12:54 PM,30.0,25.0,82,29.95,1.5,North,16.1,-,0.00,Snow,Light Snow,350,2013-03-24 17:54:00
12:58 PM,30.0,25.0,82,29.92,1.2,North,12.7,-,0.00,Snow,Light Snow,350,2013-03-24 17:58:00
1:54 PM,30.0,25.0,82,29.93,1.2,NNW,16.1,-,0.00,Snow,Light Snow,340,2013-03-24 18:54:00
2:54 PM,30.9,26.1,82,29.93,1.2,North,19.6,25.3,0.00,Snow,Light Snow,350,2013-03-24 19:54:00
3:54 PM,32.0,26.1,79,29.93,1.2,NNW,10.4,-,0.00,Snow,Light Snow,330,2013-03-24 20:54:00
4:06 PM,30.9,27.0,85,29.90,1.2,NW,13.8,-,0.00,Snow,Light Snow,320,2013-03-24 21:06:00
4:21 PM,30.9,27.0,85,29.90,1.2,NNW,12.7,-,0.00,Snow,Light Snow,330,2013-03-24 21:21:00
4:54 PM,30.9,26.1,82,29.94,1.2,NNW,12.7,-,0.00,Snow,Light Snow,330,2013-03-24 21:54:00
5:43 PM,30.9,27.0,85,29.92,0.8,NNW,9.2,-,0.00,Snow,Light Snow,340,2013-03-24 22:43:00
5:54 PM,30.9,27.0,85,29.96,0.8,NNW,8.1,-,0.00,Snow,Light Snow,330,2013-03-24 22:54:00
6:16 PM,30.9,27.0,85,29.93,0.5,NNW,12.7,-,0.00,Fog-Snow,Light Snow,330,2013-03-24 23:16:00
6:32 PM,30.9,27.0,85,29.94,0.8,NNW,15.0,-,0.01,Snow,Light Snow,340,2013-03-24 23:32:00
6:54 PM,30.9,27.0,85,29.97,0.8,NNW,6.9,-,0.01,Snow,Light Snow,340,2013-03-24 23:54:00
7:02 PM,30.9,27.0,85,29.94,0.8,NNW,11.5,-,0.01,Snow,Light Snow,330,2013-03-25 00:02:00
7:44 PM,30.9,27.0,85,29.95,1.0,NNW,10.4,-,0.02,Snow,Light Snow,330,2013-03-25 00:44:00
7:54 PM,30.0,27.0,88,29.99,1.0,NNW,12.7,-,0.02,Snow,Light Snow,330,2013-03-25 00:54:00
8:32 PM,30.0,27.0,88,29.96,1.0,NNW,11.5,-,0.01,Snow,Light Snow,330,2013-03-25 01:32:00
8:54 PM,30.0,27.0,88,29.99,1.0,NNW,11.5,-,0.02,Snow,Light Snow,330,2013-03-25 01:54:00
9:36 PM,30.0,27.0,88,29.96,1.0,NW,11.5,-,0.01,Snow,Light Snow,320,2013-03-25 02:36:00
9:54 PM,30.0,27.0,88,29.99,1.2,NW,12.7,-,0.01,Snow,Light Snow,320,2013-03-25 02:54:00
10:12 PM,30.0,27.0,88,29.96,1.2,NNW,15.0,-,0.00,Snow,Light Snow,340,2013-03-25 03:12:00
10:54 PM,30.0,26.1,85,29.99,1.0,NNW,10.4,-,0.00,Snow,Light Snow,340,2013-03-25 03:54:00
11:10 PM,30.0,26.1,85,29.96,1.0,NNW,10.4,-,0.01,Snow,Light Snow,340,2013-03-25 04:10:00
11:37 PM,30.0,26.1,85,29.97,1.0,NNW,10.4,-,0.01,Snow,Light Snow,340,2013-03-25 04:37:00
11:54 PM,30.0,26.1,85,30.00,1.2,North,13.8,-,0.01,Snow,Light Snow,350,2013-03-25 04:54:00